Theta_e
308 308 307 306 305 304 303 304 302 303 303 301 302 303 302 301 302 302 302 303 303 303 305 306 307 309 311 311 313 316 315 317 322 327 336 333 330 329 328 328 330 331 322
306 306 305 303 303 303 303 302 303 301 301 302 301 301 301 301 301 301 301 303 303 303 305 306 307 311 311 313 312 315 318 322 325 324 330 326 324 322 320 320 321 320 320
304 302 302 302 302 301 301 301 301 301 301 301 301 300 300 301 302 302 302 302 303 304 305 306 308 310 311 313 314 316 320 322 325 324 324 324 317 315 312 313 313 316 314
300 300 301 301 300 302 299 301 302 302 301 300 301 300 300 301 302 302 302 302 304 305 306 307 309 310 311 313 314 318 323 323 323 325 323 320 316 312 311 308 308 312 312
298 299 299 299 300 298 300 302 302 301 300 300 300 299 300 300 302 302 304 304 304 306 307 308 310 312 314 315 315 317 322 323 322 319 317 314 310 308 307 309 307 307 307
297 296 296 297 297 300 300 302 301 300 299 299 298 299 298 299 300 302 306 305 307 309 309 310 312 313 316 313 313 314 313 317 322 320 317 313 309 309 308 307 305 304 302
294 294 296 296 298 302 300 301 299 298 298 297 298 298 298 300 299 299 303 304 303 303 303 304 306 307 308 308 307 307 307 307 308 317 311 308 306 307 306 305 303 305 305
294 295 296 298 302 300 299 299 298 297 297 297 298 298 299 300 298 298 301 304 303 303 303 303 303 303 304 305 305 304 304 303 306 307 308 307 308 307 309 308 306 306 310
297 297 300 303 303 301 300 299 298 297 297 297 298 297 298 299 297 297 301 303 304 303 303 303 304 303 300 301 303 302 303 304 303 302 301 300 300 301 305 310 307 306 305
301 301 304 302 304 303 304 304 302 301 298 298 297 298 299 299 297 296 300 302 301 302 303 303 299 301 298 299 306 304 302 308 308 307 307 307 308 307 307 315 312 307 306
304 304 304 305 304 303 304 304 303 303 301 302 302 302 302 300 300 296 297 301 302 301 300 299 303 297 297 297 301 308 306 309 307 308 306 306 308 309 310 312 313 310 307
305 304 303 304 303 302 303 302 302 302 301 302 303 303 302 307 299 297 296 297 301 302 303 305 302 296 296 296 303 297 298 304 309 307 306 306 305 306 309 309 311 311 311
303 303 303 303 302 301 301 300 298 299 299 298 299 301 302 302 303 299 297 297 300 304 304 301 297 296 297 302 299 299 302 307 306 304 304 305 306 308 309 312 311 310 309
301 302 303 302 301 302 300 299 297 295 296 296 297 298 301 301 300 301 306 307 303 306 304 306 301 302 299 302 304 304 306 306 305 304 304 305 307 307 306 306 306 306 306
301 302 302 301 302 301 302 298 295 295 293 294 294 298 296 297 295 292 295 301 304 302 301 306 303 302 301 302 302 304 304 305 304 305 305 304 304 304 304 304 303 303 302
300 300 300 300 300 299 299 299 290 291 291 290 290 291 297 291 290 291 291 292 293 293 303 301 299 300 300 300 301 302 303 302 302 303 303 302 300 300 301 300 300 300 299
302 300 300 298 298 297 297 296 295 294 292 291 291 290 290 289 291 291 291 291 293 298 299 299 298 298 298 299 299 299 299 299 301 300 300 299 298 299 298 298 298 297 297
302 295 300 299 298 298 297 296 296 296 296 298 293 293 291 290 291 291 292 297 300 297 297 296 295 296 296 296 297 297 298 298 297 298 298 298 298 297 297 297 296 296 296
300 300 300 300 299 297 297 295 295 296 297 298 299 297 296 292 292 292 292 296 294 294 294 295 295 295 294 295 295 296 296 296 295 296 297 297 296 296 296 297 297 290 292
302 294 296 299 299 297 296 295 294 295 296 298 297 297 299 299 297 295 295 294 294 293 293 292 293 293 293 293 294 294 294 294 294 294 294 295 295 296 296 297 297 296 295
300 300 290 299 298 297 296 294 294 295 296 297 298 295 286 298 294 294 293 293 292 293 292 292 292 292 293 293 293 293 292 293 293 293 293 294 295 294 295 297 298 296 294
300 300 300 298 298 296 295 295 294 294 295 296 298 297 288 299 295 293 293 293 293 293 293 292 292 292 292 292 292 292 291 291 292 292 293 293 293 293 294 294 296 295 295
300 299 298 297 297 293 295 294 293 294 294 295 296 297 299 298 296 294 294 294 293 293 293 293 292 292 293 293 293 292 291 291 292 293 292 292 292 293 293 293 295 293 294
300 299 298 297 297 296 295 294 294 290 294 295 296 296 298 298 296 295 294 294 293 293 295 297 296 295 293 292 292 292 292 290 292 292 293 293 292 291 292 294 294 295 294
300 299 298 297 297 296 296 294 294 294 296 297 296 296 298 297 295 295 294 295 297 298 297 296 296 295 292 291 290 290 287 285 289 287 293 293 291 291 292 293 294 295 297
299 299 298 298 297 296 295 294 294 296 297 296 297 297 299 296 295 294 296 297 297 297 296 296 296 293 291 290 289 286 285 285 288 286 293 293 292 293 294 294 294 295 296
Wind_Speed
14 14 14 14 15 15 14 15 16 17 15 15 16 16 16 16 14 14 14 14 14 13 12 11 13 13 9 8 11 13 9 10 11 5 6 3 3 3 3 3 6 9 7
13 14 14 14 15 15 15 16 15 16 15 16 15 15 15 15 14 14 14 12 13 13 12 12 13 9 12 11 10 14 12 14 9 11 6 3 2 3 3 6 5 5 6
14 14 14 15 15 15 17 17 15 15 16 15 16 15 16 16 15 14 14 13 12 12 11 11 11 10 10 9 10 12 12 11 10 6 5 2 2 2 4 4 6 5 6
14 14 14 15 15 15 15 16 16 15 15 15 15 15 15 16 16 15 14 11 11 10 10 10 10 10 10 8 9 11 12 11 11 10 4 3 2 3 4 6 5 3 5
13 13 14 15 14 13 15 15 14 13 13 14 14 14 14 13 11 17 8 6 6 6 7 9 9 12 16 11 5 9 8 6 5 5 4 2 3 4 6 4 4 4 3
13 13 13 13 13 13 14 14 13 14 13 13 13 14 14 10 22 21 8 4 3 4 4 3 3 6 11 13 12 11 8 9 7 5 5 3 4 6 5 5 5 3 2
11 11 11 11 12 13 13 14 14 12 13 14 14 14 14 12 21 20 16 8 8 8 7 6 5 6 8 8 17 16 16 17 14 2 7 5 7 6 9 7 3 1 2
9 9 10 11 12 11 11 12 12 11 12 12 13 14 13 12 22 21 15 9 10 11 10 10 10 11 10 10 13 15 14 14 12 9 9 8 9 8 5 6 7 6 5
8 10 11 12 12 10 10 10 9 10 11 12 12 14 15 14 24 21 14 10 12 13 12 13 11 12 14 12 13 14 14 15 15 20 18 14 10 8 1 6 6 6 6
11 11 12 10 11 13 15 13 10 5 6 7 10 10 14 13 23 21 15 8 12 10 11 12 19 15 15 10 13 12 12 13 11 7 8 6 9 10 11 3 3 4 5
12 11 11 11 12 12 13 12 12 13 10 7 7 4 9 9 14 18 17 9 7 7 8 8 9 16 15 14 12 11 10 9 9 11 9 7 6 6 6 7 7 6 2
10 10 10 11 10 10 13 13 14 13 12 13 11 10 9 12 10 11 13 11 10 7 8 7 9 11 14 12 10 7 7 5 7 8 8 7 6 6 6 6 6 7 6
10 11 10 10 10 11 12 13 12 14 12 12 11 11 12 13 13 13 8 9 13 11 9 6 4 4 9 13 14 13 10 8 7 8 6 6 6 6 4 2 4 4 6
10 10 9 9 9 8 9 11 11 13 13 12 11 11 11 12 13 13 11 9 7 4 5 6 6 8 12 12 10 9 9 9 7 7 5 5 4 4 5 5 4 4 1
10 10 11 9 9 9 8 8 10 11 10 11 11 10 11 10 11 13 11 10 10 9 8 10 10 10 9 8 8 9 8 7 7 6 6 6 5 5 5 5 5 4 3
10 10 8 9 9 9 8 6 7 10 9 8 11 13 9 10 13 14 15 15 17 17 11 9 9 9 9 9 8 8 8 9 8 7 6 6 6 6 6 5 4 4 3
9 10 8 9 9 9 9 9 8 6 8 11 7 8 8 11 15 15 13 11 17 12 10 10 10 10 9 9 9 9 8 8 8 7 6 7 6 5 5 5 4 4 3
10 3 8 8 9 8 8 8 8 8 9 9 9 8 7 8 12 18 17 12 12 12 10 10 9 9 9 8 8 8 8 7 7 7 6 6 6 5 5 4 4 3 3
9 8 8 7 8 7 8 8 8 9 8 9 10 10 8 5 11 15 17 11 10 10 10 10 9 9 9 9 8 8 8 8 7 7 6 6 6 5 4 4 3 3 2
6 6 5 7 7 8 8 8 8 8 9 9 11 11 11 11 12 12 12 11 10 9 9 9 9 8 8 8 8 8 8 8 7 7 6 6 5 5 4 4 3 3 4
6 6 5 8 9 8 8 8 8 8 9 9 9 10 11 10 10 10 10 10 9 9 9 9 8 8 8 8 8 8 8 7 7 6 6 6 6 5 4 4 3 3 2
5 6 7 9 8 8 8 8 8 8 9 9 8 7 7 10 9 9 9 9 9 8 7 8 7 8 8 8 8 7 8 7 7 6 6 5 5 4 3 3 2 3 2
5 7 7 6 6 6 7 8 9 8 8 9 9 9 10 10 9 9 9 9 9 8 7 7 8 8 8 8 7 7 7 7 7 6 6 4 4 3 3 3 3 3 3
6 7 6 6 7 8 8 8 8 7 8 9 9 9 9 9 10 11 10 9 8 7 7 8 9 11 10 8 8 8 6 6 6 6 7 4 3 3 2 2 3 4 4
6 6 6 7 8 8 7 8 8 9 9 9 9 9 9 10 10 10 9 9 8 9 11 10 8 13 14 13 13 14 11 9 7 6 4 4 3 2 2 2 3 3 4
5 7 7 7 7 7 8 8 9 9 9 9 9 9 10 11 10 10 10 11 10 10 12 10 14 18 17 12 12 13 11 9 8 6 3 2 2 2 2 4 6 4 4
Wind_Direction
334 331 327 324 327 321 314 317 317 310 310 304 301 303 298 294 288 282 273 266 257 255 251 254 249 245 242 241 258 247 233 248 251 253 249 159 171 161 142 74 155 155 131
335 332 328 327 324 323 323 326 316 316 313 310 309 301 298 296 289 280 275 268 257 253 249 247 252 245 238 237 245 257 240 238 250 250 234 170 100 82 130 125 101 83 131
338 330 330 329 333 329 331 318 323 316 316 314 313 308 307 303 298 289 276 270 263 251 249 250 250 249 247 237 240 248 249 233 244 248 212 166 102 124 90 82 81 77 105
336 334 336 336 330 335 322 323 325 323 319 320 319 316 313 310 305 295 275 262 256 248 240 246 248 252 254 243 254 268 253 231 228 240 240 157 128 123 127 136 120 96 103
340 340 342 333 335 325 325 330 332 328 327 327 325 326 325 324 325 323 339 243 282 249 241 239 243 248 253 254 250 261 266 260 236 204 174 145 139 147 161 155 120 110 77
349 341 331 333 326 331 339 339 341 336 333 333 334 336 335 333 340 354 3 333 319 343 329 323 297 306 254 235 235 252 316 299 272 217 187 172 156 154 123 121 101 114 116
340 328 334 331 331 345 341 343 343 336 335 340 342 345 341 353 359 4 17 31 41 35 28 23 33 27 30 62 86 79 61 53 50 58 91 91 92 105 115 116 120 103 149
330 340 347 339 350 344 343 347 341 342 345 343 346 349 353 3 7 10 11 34 43 43 42 45 53 52 46 69 82 78 67 54 52 65 77 86 102 97 101 138 164 190 198
348 346 351 345 358 354 351 347 340 342 350 347 354 356 2 7 9 12 15 25 43 43 45 41 53 59 48 56 76 76 78 78 66 81 79 71 74 76 99 171 192 204 126
354 347 353 357 348 357 359 4 351 335 335 338 343 353 6 17 14 16 19 28 40 38 39 40 42 50 39 44 83 80 78 87 94 94 90 96 83 58 29 48 340 127 138
342 356 6 1 359 2 4 5 4 6 357 350 343 353 7 17 26 22 21 33 39 42 39 32 38 34 37 38 44 73 92 105 88 86 80 74 67 73 64 54 20 12 354
352 3 10 10 9 8 11 12 14 1 13 16 6 22 32 21 43 31 25 32 38 45 64 72 79 74 59 39 49 36 45 87 78 72 67 60 56 54 58 37 41 34 48
3 5 5 10 14 12 12 21 15 7 11 10 13 14 26 24 20 353 63 43 40 70 57 37 32 102 103 74 44 26 44 49 48 52 57 56 41 43 14 19 95 96 79
5 358 1 14 360 17 19 19 30 12 9 13 5 16 16 24 16 5 8 17 33 59 116 63 69 70 47 35 32 38 46 36 27 43 37 36 23 9 38 359 1 13 196
11 8 2 17 17 15 53 31 37 48 29 17 7 14 11 14 7 330 358 12 2 356 316 46 38 35 37 35 38 35 41 31 29 27 16 15 15 17 25 15 10 15 24
8 6 19 11 17 20 18 105 92 104 89 57 38 26 36 20 347 353 346 352 358 348 48 49 44 38 33 29 26 24 27 20 15 12 17 15 17 10 12 8 11 10 29
3 359 10 15 18 23 22 22 21 139 117 88 58 46 14 352 358 355 345 309 24 43 47 40 33 25 19 17 14 13 13 12 3 9 11 13 9 12 359 9 15 23 35
10 52 15 21 16 18 25 23 24 25 23 26 79 37 21 349 5 7 354 23 40 35 34 28 23 18 15 11 7 6 3 5 8 2 5 4 5 4 357 8 28 17 22
17 20 12 22 29 14 22 28 27 28 25 28 24 23 18 50 53 34 24 35 29 27 20 21 14 12 9 4 1 357 357 3 355 356 357 356 358 352 348 356 40 46 338
48 23 336 18 25 24 25 24 27 27 27 29 35 18 5 37 29 27 27 23 21 19 15 10 8 4 1 359 356 355 352 353 354 353 348 344 343 334 342 345 17 35 41
13 37 357 24 26 21 25 27 29 22 24 31 42 24 325 36 28 23 16 15 11 7 4 359 358 357 354 351 348 346 346 342 344 343 337 336 331 346 347 349 351 55 50
24 26 25 33 21 30 16 27 30 27 24 25 25 57 328 47 32 20 15 10 5 1 359 353 349 349 347 343 341 338 337 336 335 332 327 328 339 349 352 346 8 57 65
32 37 42 33 20 25 34 36 28 22 25 26 24 27 29 31 28 23 12 6 1 355 354 351 350 350 349 344 342 336 332 332 325 325 330 338 331 352 14 345 32 64 71
35 42 33 40 34 33 23 31 28 44 18 27 26 28 26 29 26 18 10 360 354 353 349 358 357 5 352 353 348 341 343 336 322 332 329 331 359 26 354 7 58 69 87
38 51 42 35 32 28 31 31 28 25 29 27 28 25 26 33 21 12 4 358 354 5 4 1 13 9 2 358 356 350 343 329 333 320 339 18 44 54 23 44 70 83 131
47 41 41 38 42 34 28 30 25 28 28 30 26 25 29 31 18 5 2 4 3 8 1 5 11 8 4 355 348 339 338 337 344 335 3 55 57 48 59 72 77 88 98